TimeBST,TemperatureF,Dew PointF,Humidity,Sea Level PressureIn,VisibilityMPH,Wind Direction,Wind SpeedMPH,Gust SpeedMPH,PrecipitationIn,Events,Conditions,WindDirDegrees,DateUTC
7:20 AM,59.0,57.2,94,30.04,6.2,ENE,4.6,-,N/A,Rain,Light Rain,60,2013-08-21 06:20:00
7:50 AM,59.0,57.2,94,30.04,6.2,ENE,2.3,-,N/A,Rain,Light Rain,70,2013-08-21 06:50:00
8:20 AM,59.0,57.2,94,30.04,6.2,SE,3.5,-,N/A,Rain,Light Rain,130,2013-08-21 07:20:00
8:50 AM,60.8,59.0,94,30.04,6.2,SSW,3.5,-,N/A,,Mostly Cloudy,210,2013-08-21 07:50:00
9:20 AM,62.6,60.8,94,30.04,6.2,WSW,2.3,-,N/A,,Mostly Cloudy,240,2013-08-21 08:20:00
9:50 AM,64.4,60.8,88,30.04,6.2,SW,5.8,-,N/A,,Mostly Cloudy,230,2013-08-21 08:50:00
10:50 AM,68.0,62.6,83,30.04,6.2,SW,8.1,-,N/A,,Scattered Clouds,230,2013-08-21 09:50:00
11:20 AM,68.0,60.8,78,30.04,6.2,SW,9.2,-,N/A,,Scattered Clouds,230,2013-08-21 10:20:00
11:50 AM,68.0,59.0,73,30.01,6.2,SW,8.1,-,N/A,,Scattered Clouds,230,2013-08-21 10:50:00
12:20 PM,66.2,60.8,83,30.01,6.2,SW,5.8,-,N/A,,Scattered Clouds,230,2013-08-21 11:20:00
12:50 PM,69.8,62.6,78,30.01,6.2,SW,5.8,-,N/A,,Mostly Cloudy,220,2013-08-21 11:50:00
1:20 PM,68.0,60.8,78,30.01,6.2,SW,6.9,-,N/A,,Mostly Cloudy,220,2013-08-21 12:20:00
1:50 PM,68.0,59.0,73,30.01,6.2,West,4.6,-,N/A,,Mostly Cloudy,260,2013-08-21 12:50:00
2:20 PM,68.0,60.8,78,30.01,6.2,WSW,4.6,-,N/A,,Mostly Cloudy,240,2013-08-21 13:20:00
2:50 PM,68.0,59.0,73,30.01,6.2,West,1.2,-,N/A,,Mostly Cloudy,260,2013-08-21 13:50:00
3:20 PM,69.8,59.0,68,30.01,6.2,SW,3.5,-,N/A,,Mostly Cloudy,220,2013-08-21 14:20:00
3:50 PM,68.0,59.0,73,30.01,6.2,East,2.3,-,N/A,,Mostly Cloudy,100,2013-08-21 14:50:00
4:20 PM,64.4,59.0,83,30.01,6.2,SSW,4.6,-,N/A,,Mostly Cloudy,200,2013-08-21 15:20:00
4:50 PM,66.2,59.0,78,30.01,6.2,West,3.5,-,N/A,,Mostly Cloudy,280,2013-08-21 15:50:00
5:20 PM,66.2,59.0,78,30.01,6.2,West,3.5,-,N/A,,Scattered Clouds,260,2013-08-21 16:20:00
5:50 PM,66.2,60.8,83,30.01,6.2,WSW,1.2,-,N/A,,Scattered Clouds,240,2013-08-21 16:50:00
6:20 PM,64.4,59.0,83,30.01,6.2,SSW,1.2,-,N/A,,Scattered Clouds,210,2013-08-21 17:20:00
6:50 PM,68.0,59.0,73,30.04,6.2,Calm,Calm,-,N/A,,Scattered Clouds,0,2013-08-21 17:50:00
7:20 PM,66.2,59.0,78,30.04,6.2,South,1.2,-,N/A,,Partly Cloudy,190,2013-08-21 18:20:00
7:50 PM,66.2,59.0,78,30.04,6.2,WNW,1.2,-,N/A,,Partly Cloudy,300,2013-08-21 18:50:00
8:20 PM,66.2,59.0,78,30.04,6.2,West,2.3,-,N/A,,Partly Cloudy,280,2013-08-21 19:20:00
8:50 PM,64.4,60.8,88,30.04,6.2,WSW,1.2,-,N/A,,Partly Cloudy,250,2013-08-21 19:50:00
9:20 PM,64.4,60.8,88,30.06,6.2,West,1.2,-,N/A,,Partly Cloudy,280,2013-08-21 20:20:00